Orbital Elements at Epoch 2459000.5 (2020-May-31.0) TDB
Reference: JPL 11 (heliocentric ecliptic J2000)
Element | Value | Uncertainty (1-sigma) | Units |
e | .2399787932644521 | 7.8726e-08 | |
a | 2.259459543011448 | 2.487e-08 | au |
q | 1.71723716844971 | 1.9147e-07 | au |
i | 23.1311058229517 | 9.0201e-06 | deg |
node | 205.3759694131254 | 1.5856e-05 | deg |
peri | 274.6229911377177 | 2.9297e-05 | deg |
M | 328.477834850915 | 3.2923e-05 | deg |
tp | 2459109.122256444283 (2020-Sep-16.62225644) | 0.00011474 | TDB |
period | 1240.524314716278 3.40 | 2.0482e-05 5.608e-08 | d yr |
n | .2901998741413918 | 4.7914e-09 | deg/d |
Q | 2.801681917573186 | 3.0839e-08 | au |
|
| | Orbit Determination Parameters
Additional Information
|